TimeCDT,TemperatureF,Dew PointF,Humidity,Sea Level PressureIn,VisibilityMPH,Wind Direction,Wind SpeedMPH,Gust SpeedMPH,PrecipitationIn,Events,Conditions,WindDirDegrees,DateUTC
12:53 AM,63.0,61.0,93,29.97,2.5,North,3.5,-,N/A,,Clear,350,2013-08-08 05:53:00
1:08 AM,60.8,59.0,94,29.99,0.8,Calm,Calm,-,N/A,,Clear,0,2013-08-08 06:08:00
1:20 AM,60.8,60.8,100,29.99,2.0,Calm,Calm,-,N/A,,Clear,0,2013-08-08 06:20:00
1:25 AM,60.8,59.0,94,29.99,0.8,Calm,Calm,-,N/A,,Clear,0,2013-08-08 06:25:00
1:49 AM,60.8,60.8,100,30.00,2.0,Calm,Calm,-,N/A,,Clear,0,2013-08-08 06:49:00
1:53 AM,61.0,60.1,97,29.99,2.0,Calm,Calm,-,N/A,,Clear,0,2013-08-08 06:53:00
1:56 AM,60.8,59.0,94,30.00,0.8,Calm,Calm,-,N/A,,Clear,0,2013-08-08 06:56:00
2:05 AM,60.8,57.2,88,30.00,0.2,Calm,Calm,-,N/A,Fog,Fog,0,2013-08-08 07:05:00
2:50 AM,60.8,57.2,88,30.01,1.0,NNW,4.6,-,N/A,,Clear,340,2013-08-08 07:50:00
2:53 AM,61.0,59.0,93,30.00,1.8,NNW,3.5,-,N/A,,Clear,340,2013-08-08 07:53:00
2:57 AM,60.8,59.0,94,30.00,3.0,North,4.6,-,N/A,,Clear,350,2013-08-08 07:57:00
3:10 AM,60.8,60.8,100,30.00,2.5,North,3.5,-,N/A,,Clear,10,2013-08-08 08:10:00
3:21 AM,62.6,60.8,94,30.01,3.0,North,3.5,-,N/A,,Clear,10,2013-08-08 08:21:00
3:53 AM,61.0,59.0,93,29.99,5.0,NNE,5.8,-,N/A,,Clear,30,2013-08-08 08:53:00
4:53 AM,63.0,60.1,90,30.00,9.0,NE,6.9,-,N/A,,Scattered Clouds,50,2013-08-08 09:53:00
5:17 AM,62.6,60.8,94,30.01,9.0,NE,5.8,-,N/A,,Mostly Cloudy,50,2013-08-08 10:17:00
5:41 AM,62.6,60.8,94,30.01,10.0,NE,6.9,-,N/A,,Scattered Clouds,50,2013-08-08 10:41:00
5:53 AM,64.0,61.0,90,30.00,10.0,ENE,6.9,-,N/A,,Scattered Clouds,60,2013-08-08 10:53:00
6:53 AM,64.9,62.1,90,30.00,10.0,ENE,6.9,-,N/A,,Partly Cloudy,70,2013-08-08 11:53:00
7:53 AM,66.9,57.9,73,30.04,10.0,ENE,6.9,-,N/A,,Clear,70,2013-08-08 12:53:00
8:53 AM,69.1,55.0,61,30.05,10.0,East,11.5,-,N/A,,Clear,90,2013-08-08 13:53:00
9:53 AM,71.1,53.1,53,30.04,10.0,ENE,10.4,-,N/A,,Clear,60,2013-08-08 14:53:00
10:53 AM,72.0,50.0,46,30.05,10.0,East,11.5,-,N/A,,Clear,90,2013-08-08 15:53:00
11:53 AM,73.0,48.9,42,30.06,10.0,ENE,10.4,-,N/A,,Clear,60,2013-08-08 16:53:00
12:53 PM,73.9,48.9,41,30.04,10.0,ENE,8.1,-,N/A,,Clear,60,2013-08-08 17:53:00
1:53 PM,75.0,48.9,40,30.04,10.0,ENE,9.2,-,N/A,,Clear,70,2013-08-08 18:53:00
2:53 PM,73.9,46.9,38,30.02,10.0,NE,9.2,-,N/A,,Clear,50,2013-08-08 19:53:00
3:53 PM,73.0,46.9,39,30.02,10.0,East,6.9,-,N/A,,Clear,80,2013-08-08 20:53:00
4:53 PM,73.0,46.9,39,30.02,10.0,ENE,6.9,-,N/A,,Clear,60,2013-08-08 21:53:00
5:53 PM,72.0,48.0,43,30.01,10.0,ENE,9.2,-,N/A,,Clear,70,2013-08-08 22:53:00
6:53 PM,68.0,52.0,56,30.01,10.0,ENE,5.8,-,N/A,,Clear,60,2013-08-08 23:53:00
7:53 PM,64.0,53.1,67,30.02,10.0,East,3.5,-,N/A,,Clear,90,2013-08-09 00:53:00
8:53 PM,61.0,53.1,75,30.02,10.0,Calm,Calm,-,N/A,,Clear,0,2013-08-09 01:53:00
9:53 PM,60.1,54.0,80,30.02,10.0,Calm,Calm,-,N/A,,Clear,0,2013-08-09 02:53:00
10:53 PM,60.1,54.0,80,30.01,10.0,Calm,Calm,-,N/A,,Clear,0,2013-08-09 03:53:00
11:53 PM,57.9,55.0,90,30.01,10.0,Calm,Calm,-,N/A,,Clear,0,2013-08-09 04:53:00